Location: Ostrava
(49.8330°N, 18.2830°E)
Time: 05:14:04
(UTC+02:00)

ISS - Pass Details

Date: 20 May 2021
Orbit: 417 x 422 km, 51.6° (Epoch: 13 June)

Event Time Altitude Azimuth Distance (km) Brightness Sun altitude
Rises 21:18:48 0° 253° (WSW) 2,359 0.5 -6.7°
Reaches altitude 10° 21:20:53 10° 254° (WSW) 1,498 -0.5 -6.9°
Maximum altitude 21:24:15 87° 338° (NNW) 425 -3.7 -7.3°
Drops below altitude 10° 21:27:38 10° 73° (ENE) 1,505 -1.2 -7.7°
Sets 21:29:45 0° 74° (ENE) 2,371 -0.2 -8.0°
